Zurück zum Katalog

ARIANE 42P DEB

AktivLEO
NORAD 44509·DEBRIS·🇫🇷 France

Gestartet Aug 10, 1992 von Guiana Space Centre

Loading…

Nächste Überflüge (nächste 24 Stunden)

TLE

AktuellSource: Space-Track

Epoche: Sep 14, 2026, 13:01 UTC

1 44509U 92052G   26257.54239005  .00002041  00000-0  84106-2 0  9998
2 44509  66.0841  98.9268 0073080 235.3447 124.0668 12.85961127331441

Verfolge ARIANE 42P DEB in Echtzeit mit AllMySat

Download on the App Store